sat.trackr.live / text

‹ back to catalog

STARLINK-36514

NORAD 67641 · 2026-020AA

PAYLOAD ACTIVE UNKNOWN

§ Identity

Operator
Country
US
Launch date
2026-01-30
Launch site
AFETR
Launch vehicle
Mass (kg)
RCS (m²)

Purposes: comms

External: N2YO · Heavens-Above · Gunter

§ Orbital elements

Epoch: 2026-05-25T02:08:29.649120Z

Period
94.26 min
Inclination
43.0014°
Eccentricity
0.0000458
Mean motion
15.27615643 rev/d
Perigee alt
482.6 km
Apogee alt
483.3 km
Semi-major
6,861.1 km
B*
7.0081e-4
RAAN
68.6699°
Arg perigee
135.3009°
Mean anomaly
224.7880°
Rev number
1,779

§ Raw data

STARLINK-365141 67641U 26020AA  26145.08923205  .00019093  00000+0  70081-3 0  99912 67641  43.0014  68.6699 0000458 135.3009 224.7880 15.27615643 17795

JSON: /api/v1/satellites/67641 · /tle

For live sub-satellite position, see the globe view (requires WebGL).

§ Visibility from observer

Set your observer location to see the next 7 days of passes ≥ 10°. The values pass through the URL so the page stays shareable.

No JS? Fill the form by hand. The geolocation button needs JavaScript.